Regional Weather Roundup
Issued by NWS Charleston, SC

Current Version | Previous Version | Graphics & Text | Print | Product List | Glossary On
Versions: 1 2 3 4 5 6 7 8 9 10 11 12 13 14 15 16 17 18 19 20 21 22 23 24 25 26 27 28 29 30 31 32 33 34 35 36 37 38 39 40 41 42 43 44 45 46 47 48 49 50
042
ASUS42 KCHS 102027
RWRCHS

REGIONAL WEATHER ROUNDUP
NATIONAL WEATHER SERVICE CHARLESTON SC
300 PM EST WED FEB 10 2016

NOTE: "FAIR" INDICATES FEW OR NO CLOUDS BELOW 12,000 FEET WITH NO
SIGNIFICANT WEATHER AND/OR OBSTRUCTIONS TO VISIBILITY.

NOT ALL STATIONS ARE QUALITY CONTROLLED BY THE NATIONAL
WEATHER SERVICE. USE DATA WITH CAUTION...ESPECIALLY
DEWPOINT OBSERVATIONS.

SCZ027-030-031-034>040-042>050-102100-
...SOUTHEAST SOUTH CAROLINA...

CITY           SKY/WX    TMP DP  RH WIND       PRES   REMARKS
N CHARLESTON   MOSUNNY   43  13  29 W20G31    29.99R
WATERFRONT PRK   N/A     41  18  39 W12       29.84S
MOUNT PLEASANT FAIR      43  18  36 W21G26    30.00R
JOHNS ISLAND   FAIR      45  14  29 W17G25    30.00S
PINOPOLIS        N/A     39  19  45 W20       29.89F WCI  30
MONCKS CORNER  FAIR      39   9  28 W9G20     30.00R WCI  33
SUMMERVILLE    FAIR      41  16  36 W12G24    30.02R
BEAUFORT MCAS  SUNNY     44  12  27 W14G29    30.05R
BEAUFORT ARPT  FAIR      45  12  26 W26G33    30.04S HAZE
HILTON HEAD IS SUNNY     43  16  33 W14G26    30.05S
WALTERBORO     CLEAR     43  10  26 W23G33    30.03S
ALLENDALE      FAIR      41  10  28 W12G20    30.05R

...SOUTHERN MIDLANDS AND PEE DEE...

CITY           SKY/WX    TMP DP  RH WIND       PRES   REMARKS
GEORGETOWN     NOT AVBL
KINGSTREE      NOT AVBL
ORANGEBURG     SUNNY     40  10  29 W20G28    30.01R WCI  30
BARNWELL       FAIR      43  12  28 W13G28    30.05R
AIKEN          FAIR      36  10  35 W21G26    30.06R WCI  24
MANNING        FAIR      39  12  33 W13G23    30.00R WCI  32
COLUMBIA       MOSUNNY   40  10  29 W20G32    30.00S WCI  30
SUMTER         SUNNY     38  13  35 W16       29.96S WCI  29
FLORENCE       PTSUNNY   37  15  40 W17G25    29.96R WCI  27
MYRTLE BEACH   MOSUNNY   41  16  36 W12G17    29.96F
N MYRTLE BEACH MOSUNNY   40  18  41 W14G25    29.92S WCI  32

$$

GAZ063-065-086>088-099>101-113>116-118-119-134>141-150-102100-
...SOUTHEAST GEORGIA...

CITY           SKY/WX    TMP DP  RH WIND       PRES   REMARKS
SAVANNAH ARPT  SUNNY     44  12  27 W23G30    30.08R
HUNTER AAF     SUNNY     45  13  27 W23G30    30.05R
FORT STEWART   SUNNY     43  10  26 W24G33    30.08R
STATESBORO     SUNNY     45   2  16 W15G29    30.08S
SYLVANIA       CLEAR     42  17  37 NW18G28   30.08S
CLAXTON        FAIR      43  18  36 W15G26    30.10S

...CSRA...CENTRAL AND FAR SOUTHEAST GEORGIA...

CITY           SKY/WX    TMP DP  RH WIND       PRES   REMARKS
THOMSON        SUNNY     40  15  36 W9G23     30.11S WCI  34
AUGUSTA-BUSH   SUNNY     40  10  29 W21G26    30.06R WCI  30
AUGUSTA-DANIEL NOT AVBL
SWAINSBORO     FAIR      41  12  30 W15G24    30.10S
VIDALIA        SUNNY     43  14  31 W12G21    30.10F
EASTMAN        FAIR      43  12  29 NW14G22   30.15F
HAZLEHURST     FAIR      45  14  28 W10G21    30.11F
ALMA           SUNNY     43  14  31 NW18G28   30.13S
WAYCROSS       SUNNY     49  19  30 W21       30.14S
JESUP          FAIR      46  21  36 NW17G25   30.12S
BAXLEY         FAIR      45  14  29 W12G21    30.12S
BRUNSWICK      SUNNY     48  18  29 W17G24    30.11S
SAINT SIMONS   SUNNY     46  16  30 W10G22    30.10S

$$

SCZ027-028-034-036>038-045-046-048>050-GAZ119-141-102100-
...LAKE AND SUPPLEMENTAL COASTAL OBSERVATIONS...

STATION/POSITION TIME  TEMP    WIND        PRES    WAVE   SWELL
                       AIR SEA DIR/SP/G            HT/PER HT/PER/DIR
                 (UTC) (F)     (DEG/KT/KT) (MB)    (FT/S) (FT/S/D)
WINYAH BAY       1900   38     270/ 14     1013.0F
LAKE MURRAY      1900   35     280/ 15/ 28 1014.9F
ACE BASIN NERRS  1900   42     290/  8     1016.0F
FORT PULASKI     2000   41 50  270/ 20/ 26 1018.2R
SAPELO ISLAND    2000   45     280/ 19     1019.0S

$$

ANZ835-935-AMZ111-154-330-350-352-354-370-450-454-472-102100-
...C-MAN AND BUOY OBSERVATIONS...

STATION/POSITION TIME  TEMP    WIND        PRES    WAVE   SWELL
                       AIR SEA DIR/SP/G            HT/PER HT/PER/DIR
                 (UTC) (F)     (DEG/KT/KT) (MB)    (FT/S) (FT/S/D)
BUOY 41004       1950   41 63  270/ 25/ 29 1014.8F   7/ 7   2/12
BUOY 41008       1950   43 53  270/ 19/ 23 1018.7R   3/ 4
FOLLY BEACH CMAN 2000   42     270/ 11/ 17 1015.8R
CAPERS NEARSHORE 1908   40     280/ 19/ 25 1015.0F
FRIPP NEARSHORE  1900   41     310/ 19/ 21 1016.5F


STATION/POSITION TIME  TEMP    WIND        PRES    WAVE   SWELL
                       AIR SEA DIR/SP/G            HT/PER HT/PER/DIR
                 (UTC) (F)     (DEG/KT/KT) (MB)    (FT/S) (FT/S/D)
5E ST. MARYS GA  1951      55                N/A     3/15   2/ 90/15
FRYING PAN BUOY  2000   41 58  260/ 19/ 27 1013.5R
BUOY 41025       1950   42 72  280/ 16/ 21 1010.9F   6/14   3/ 90/14
CAPE LOOKOUT NC  NOT AVBL
BUOY 41002       1950   56 68  270/ 29/ 35   N/A    14/10  11/270/10
BUOY 41010       1920   58 72              1019.0F
ST AUGUSTINE FL  2000   53 56  290/ 14/ 21 1020.5R


$$




USA.gov is the U.S. government's official web portal to all federal, state and local government web resources and services.